TimeCDT,TemperatureF,Dew PointF,Humidity,Sea Level PressureIn,VisibilityMPH,Wind Direction,Wind SpeedMPH,Gust SpeedMPH,PrecipitationIn,Events,Conditions,WindDirDegrees,DateUTC
12:53 AM,63.0,59.0,87,29.96,10.0,North,6.9,-,N/A,,Clear,350,2013-09-02 05:53:00
1:53 AM,62.1,59.0,90,29.97,10.0,NNW,5.8,-,N/A,,Clear,340,2013-09-02 06:53:00
2:53 AM,62.1,57.0,84,29.97,10.0,North,10.4,-,N/A,,Clear,10,2013-09-02 07:53:00
3:53 AM,60.1,57.0,90,29.99,10.0,North,6.9,-,N/A,,Clear,350,2013-09-02 08:53:00
4:53 AM,59.0,55.9,90,29.99,10.0,NNW,5.8,-,N/A,,Clear,340,2013-09-02 09:53:00
5:53 AM,57.9,55.0,90,30.00,10.0,North,6.9,-,N/A,,Clear,350,2013-09-02 10:53:00
6:53 AM,57.0,55.0,93,30.01,10.0,North,6.9,-,N/A,,Clear,360,2013-09-02 11:53:00
7:53 AM,59.0,55.9,90,30.04,10.0,North,8.1,-,N/A,,Clear,360,2013-09-02 12:53:00
8:53 AM,62.1,57.0,84,30.05,10.0,North,8.1,-,N/A,,Clear,10,2013-09-02 13:53:00
9:53 AM,66.9,57.0,70,30.06,10.0,North,8.1,-,N/A,,Clear,360,2013-09-02 14:53:00
10:53 AM,71.1,57.0,61,30.06,10.0,NNW,8.1,-,N/A,,Clear,340,2013-09-02 15:53:00
11:53 AM,73.9,55.9,53,30.05,10.0,North,8.1,-,N/A,,Clear,10,2013-09-02 16:53:00
12:53 PM,78.1,57.0,48,30.04,10.0,North,9.2,-,N/A,,Clear,10,2013-09-02 17:53:00
1:53 PM,79.0,52.0,39,30.02,10.0,North,9.2,19.6,N/A,,Clear,350,2013-09-02 18:53:00
2:53 PM,81.0,52.0,36,30.01,10.0,NNE,13.8,-,N/A,,Clear,30,2013-09-02 19:53:00
3:53 PM,81.0,51.1,35,30.00,10.0,NNE,8.1,-,N/A,,Clear,20,2013-09-02 20:53:00
4:53 PM,82.0,51.1,34,29.99,10.0,North,6.9,-,N/A,,Clear,360,2013-09-02 21:53:00
5:53 PM,80.1,50.0,35,29.99,10.0,North,8.1,-,N/A,,Clear,10,2013-09-02 22:53:00
6:53 PM,77.0,48.9,37,30.00,10.0,NNE,8.1,-,N/A,,Clear,20,2013-09-02 23:53:00
7:53 PM,71.1,51.1,49,30.00,10.0,North,4.6,-,N/A,,Clear,10,2013-09-03 00:53:00
8:53 PM,68.0,53.1,59,30.01,10.0,NNE,3.5,-,N/A,,Clear,30,2013-09-03 01:53:00
9:53 PM,64.9,53.1,65,30.02,10.0,North,4.6,-,N/A,,Clear,10,2013-09-03 02:53:00
10:53 PM,63.0,53.1,70,30.03,10.0,North,5.8,-,N/A,,Clear,350,2013-09-03 03:53:00
11:53 PM,61.0,52.0,72,30.03,10.0,North,4.6,-,N/A,,Clear,360,2013-09-03 04:53:00